STARLINK-1183 (45088 NORAD) Tracking and Keplerian Element Data

This shows tracking and keplerian element data for the satellite.

Feedback or suggestion? Click here.




ElementValue
Catalog45088
NameSTARLINK-1183
Epoch Orbit290
Epoch Day47.91667824
Epoch Year2020
RAAN144.3675
Inclination52.997
Eccentricity0.0001488
Argument of Perigee55.5494
Mean Anonmoly201.0276
Mean Motion15.73180213
Decay Rate0.00286032
L11 45088U 20006AW 20047.91667824 .00286032 00000-0 19750-2 0 9994
L22 45088 52.9970 144.3675 0001488 55.5494 201.0276 15.73180213 2902

Live tracking and technical data element details for STARLINK-1183 (NORAD 45088). STARLINK-1183 can be tracked NOW for your location showing map with azimuth and elevation plus other details from your city location.

Track the satellite on the map from your city or location and see movement details for azimuth, elevation, latitude, longitude, range, height, and movement on the map or in text.







IsCatalogInMostPopularTable: catalog: 45088, numindb: 2
Update: records affected: 1



GetName: 45088 STARLINK-1183

Hit Count: updated at: Tue, 18 Feb 2020 00:10:57 GMT